Regional Weather Roundup
Issued by NWS

Home | Current Version | Previous Version | Text Only | Print | Product List | Glossary On
Versions: 1 2 3 4 5 6 7 8 9 10 11 12 13 14 15 16 17 18 19 20 21 22 23 24 25 26 27 28 29 30 31 32 33 34 35 36 37 38 39 40 41 42 43 44 45 46 47 48 49 50
000
ASUS43 KDMX 301207
RWRIA

WEATHER ROUNDUP FOR IOWA
NATIONAL WEATHER SERVICE DES MOINES IA
700 AM CDT THU JUL 30 2015

NOTE: "FAIR" INDICATES FEW OR NO CLOUDS BELOW 12,000 FEET WITH NO
SIGNIFICANT WEATHER AND/OR OBSTRUCTIONS TO VISIBILITY.

* - THESE STATIONS ARE NOT NWS STATIONS...THUS NOT UNDER NWS
QUALITY CONTROL.  THEY ALSO DO NOT REPORT WEATHER SUCH
AS PRECIPITATION OR FOG.

IAZ001>003-012>014-020>022-031>034-043>046-301300-
   NORTHWEST IOWA

CITY           SKY/WX    TMP DP  RH WIND       PRES   REMARKS
CARROLL *      CLEAR     64  59  82 W7        30.15S
CHEROKEE *     CLEAR     57  57 100 CALM      30.15R
DENISON *      CLEAR     61  59  94 CALM      30.16R
LE MARS *      CLEAR     59  59 100 CALM      30.15S
ORANGE CITY *  CLEAR     59  55  88 CALM      30.14S
SHELDON *        N/A     54  54 100 CALM      30.13S
SIOUX CITY     CLEAR     64  56  75 W3        30.15S
6HR MIN TEMP:  62; 6HR MAX TEMP:  68;

SPENCER        CLEAR     57  54  89 CALM      30.13S
6HR MIN TEMP:  54; 6HR MAX TEMP:  61;

STORM LAKE *   CLEAR     61  59  94 W8        30.16R
$$

IAZ055>058-069>071-079>083-090>094-301300-
   SOUTHWEST IOWA

CITY           SKY/WX    TMP DP  RH WIND       PRES   REMARKS
ATLANTIC *     CLEAR     59  59 100 CALM      30.18S
AUDUBON *      CLEAR     63  57  82 SW5       30.18S
CLARINDA *     FOG       61  61 100 CALM      30.20R VSB 1/2
COUNCIL BLFS * CLEAR     63  59  88 CALM      30.19R
CRESTON *      CLEAR     63  59  88 W5        30.18S
HARLAN  *      CLEAR     57  57 100 CALM      30.21S
LAMONI         CLEAR     65  59  81 W5        30.17S
6HR MIN TEMP:  64; 6HR MAX TEMP:  70;

RED OAK *      CLEAR     61  61 100 CALM      30.19R FOG
SHENANDOAH *   CLEAR     61  61 100 CALM      30.19R
$$

IAZ047>049-059>061-072>074-084-301300-
   CENTRAL IOWA

CITY           SKY/WX    TMP DP  RH WIND       PRES   REMARKS
AMES           CLEAR     61  58  90 W3        30.13S
6HR MIN TEMP:  59; 6HR MAX TEMP:  64;

ANKENY *       CLEAR     66  59  77 W8        30.14S
CHARITON *     CLEAR     64  59  82 W8        30.16R
DES MOINES     CLEAR     65  57  75 SW5       30.14S
6HR MIN TEMP:  64; 6HR MAX TEMP:  68;

GRINNELL*      CLEAR     63  59  88 W5        30.15S
KNOXVILLE *    CLEAR     63  57  82 SW6       30.14R
MARSHALLTOWN     N/A     60  58  92 W7        30.12S
6HR MIN TEMP:  58; 6HR MAX TEMP:  64;

PELLA *        CLEAR     65  62  90 W6        30.15S
PERRY *          N/A     63  57  82 W7        30.14S
$$

IAZ004>006-015-016-023>025-035-036-301300-
   NORTH CENTRAL IOWA

CITY           SKY/WX    TMP DP  RH WIND       PRES   REMARKS
ALGONA *       CLEAR     61  59  94 W6        30.12S
CLARION *      CLEAR     57  55  94 S3        30.13R
ESTHERVILLE    CLEAR     59  56  89 W6        30.12S
6HR MIN TEMP:  57; 6HR MAX TEMP:  60;

FORT DODGE *   CLEAR     61  55  82 SW3       30.14S
MASON CITY     CLEAR     64  57  78 W8        30.12S
6HR MIN TEMP:  62; 6HR MAX TEMP:  68;

FOREST CITY *  CLEAR     59  57  94 CALM      30.11S
IOWA FALLS *     N/A     60  57  89 W7        30.14S
$$

IAZ007>011-017>019-026>030-037>042-050>054-066-301300-
   NORTHEAST IOWA

CITY           SKY/WX    TMP DP  RH WIND       PRES   REMARKS
CEDAR RAPIDS   CLEAR     62  61  96 NW3       30.11R
6HR MIN TEMP:  59; 6HR MAX TEMP:  65;

CHARLES CITY * CLEAR     61  61 100 W5        30.10S
CLINTON *      SUNNY     61  57  88 NW6       30.12R
DECORAH *      SUNNY     63  57  82 W6        30.08S
DUBUQUE        SUNNY     64  59  83 NW9       30.10R
6HR MIN TEMP:  62; 6HR MAX TEMP:  65;

MONTICELLO *   SUNNY     63  59  88 CALM      30.10R
OELWEIN *        N/A     61  59  94 NW5       30.11S
WATERLOO       CLEAR     63  59  87 W5        30.10R
6HR MIN TEMP:  60; 6HR MAX TEMP:  67;

$$

IAZ064-065-067-068-078-301300-
   EAST CENTRAL IOWA

CITY           SKY/WX    TMP DP  RH WIND       PRES   REMARKS
DAVENPORT      SUNNY     63  59  87 W5        30.11R
6HR MIN TEMP:  61; 6HR MAX TEMP:  65;

IOWA CITY      CLEAR     64  60  87 W8        30.12S
6HR MIN TEMP:  62; 6HR MAX TEMP:  65;

MT. PLEASANT * CLEAR     66  59  77 W3        30.14S
MUSCATINE *    SUNNY     66  59  77 W7        30.11S
QUAD CITIES    SUNNY     66  60  81 W7        30.10S
6HR MIN TEMP:  61; 6HR MAX TEMP:  66;

$$

IAZ062-063-075>077-085>089-095>099-301300-
   SOUTHEAST IOWA

CITY           SKY/WX    TMP DP  RH WIND       PRES   REMARKS
BURLINGTON     CLEAR     65  61  87 NW5       30.13S
6HR MIN TEMP:  64; 6HR MAX TEMP:  67;

FAIRFIELD *    CLEAR     63  59  88 W5        30.14S
FORT MADISON * CLEAR     64  61  88 W5        30.15R
KEOKUK *       CLEAR     66  61  82 W5        30.14R
OSKALOOSA *      N/A     60  58  94 CALM      30.15R
CENTERVILLE *  CLEAR     64  59  82 W5        30.17S
OTTUMWA        CLEAR     63  59  87 W7        30.13R
6HR MIN TEMP:  60; 6HR MAX TEMP:  64;

WASHINGTON *   CLEAR     63  61  94 W6        30.15R
$$

ABBREVIATIONS USED IN REMARKS
   TC - TEMPERATURES IN CELSIUS
  WCI - WIND CHILL INDEX
   HX - HEAT INDEX
  VSB - VISIBILITY
$$




USA.gov is the U.S. government's official web portal to all federal, state and local government web resources and services.